Year,Month,Day,Hour,Minute,Value (Times are PST for temperature in C)
2016,06,20,00,00,6.90
2016,06,20,00,01,6.90
2016,06,20,00,02,6.90
2016,06,20,00,03,6.90
2016,06,20,00,04,6.90
2016,06,20,00,05,6.90
2016,06,20,00,06,6.90
2016,06,20,00,07,6.90
2016,06,20,00,08,6.90
2016,06,20,00,09,6.90
2016,06,20,00,10,6.90
2016,06,20,00,11,6.90
2016,06,20,00,12,6.90
2016,06,20,00,13,6.90
2016,06,20,00,14,6.90
2016,06,20,00,15,6.90
2016,06,20,00,16,6.90
2016,06,20,00,17,6.90
2016,06,20,00,18,6.90
2016,06,20,00,19,6.90
2016,06,20,00,20,6.90
2016,06,20,00,21,6.80
2016,06,20,00,22,6.80
2016,06,20,00,23,6.80
2016,06,20,00,24,6.80
2016,06,20,00,25,6.80
2016,06,20,00,26,6.80
2016,06,20,00,27,6.80
2016,06,20,00,28,6.80
2016,06,20,00,29,6.80
2016,06,20,00,30,6.80
2016,06,20,00,31,6.80
2016,06,20,00,32,6.70
2016,06,20,00,33,6.70
2016,06,20,00,34,6.70
2016,06,20,00,35,6.70
2016,06,20,00,36,6.70
2016,06,20,00,37,6.70
2016,06,20,00,38,6.70
2016,06,20,00,39,6.70
2016,06,20,00,40,6.70
2016,06,20,00,41,6.70
2016,06,20,00,42,6.70
2016,06,20,00,43,6.70
2016,06,20,00,44,6.70
2016,06,20,00,45,6.70
2016,06,20,00,46,6.70
2016,06,20,00,47,6.70
2016,06,20,00,48,6.70
2016,06,20,00,49,6.70
2016,06,20,00,50,6.70
2016,06,20,00,51,6.70
2016,06,20,00,52,6.80
2016,06,20,00,53,6.80
2016,06,20,00,54,6.80
2016,06,20,00,55,6.80
2016,06,20,00,56,6.80
2016,06,20,00,57,6.80
2016,06,20,00,58,6.80
2016,06,20,00,59,6.80
2016,06,20,01,00,6.80
2016,06,20,01,01,6.80
2016,06,20,01,02,6.50
2016,06,20,01,03,6.50
2016,06,20,01,04,6.50
2016,06,20,01,05,6.50
2016,06,20,01,06,6.50
2016,06,20,01,07,6.50
2016,06,20,01,08,6.50
2016,06,20,01,09,6.50
2016,06,20,01,10,6.50
2016,06,20,01,11,6.50
2016,06,20,01,12,6.50
2016,06,20,01,13,6.30
2016,06,20,01,14,6.30
2016,06,20,01,15,6.30
2016,06,20,01,16,6.30
2016,06,20,01,17,6.30
2016,06,20,01,18,6.30
2016,06,20,01,19,6.30
2016,06,20,01,20,6.30
2016,06,20,01,21,6.30
2016,06,20,01,22,6.30
2016,06,20,01,23,6.40
2016,06,20,01,24,6.40
2016,06,20,01,25,6.40
2016,06,20,01,26,6.40
2016,06,20,01,27,6.40
2016,06,20,01,28,6.40
2016,06,20,01,29,6.40
2016,06,20,01,30,6.40
2016,06,20,01,31,6.80
2016,06,20,01,32,6.80
2016,06,20,01,33,6.80
2016,06,20,01,34,6.80
2016,06,20,01,35,6.80
2016,06,20,01,36,6.80
2016,06,20,01,37,6.80
2016,06,20,01,38,6.80
2016,06,20,01,39,6.80
2016,06,20,01,40,6.80
2016,06,20,01,41,6.80
2016,06,20,01,42,6.80
2016,06,20,01,43,6.60
2016,06,20,01,44,6.60
2016,06,20,01,45,6.60
2016,06,20,01,46,6.60
2016,06,20,01,47,6.60
2016,06,20,01,48,6.60
2016,06,20,01,49,6.60
2016,06,20,01,50,6.60
2016,06,20,01,51,6.40
2016,06,20,01,52,6.40
2016,06,20,01,53,6.40
2016,06,20,01,54,6.40
2016,06,20,01,55,6.40
2016,06,20,01,56,6.40
2016,06,20,01,57,6.40
2016,06,20,01,58,6.40
2016,06,20,01,59,6.40
2016,06,20,02,00,6.40
2016,06,20,02,01,6.40
2016,06,20,02,02,6.40
2016,06,20,02,03,6.40
2016,06,20,02,04,6.40
2016,06,20,02,05,6.40
2016,06,20,02,06,6.40
2016,06,20,02,07,6.40
2016,06,20,02,08,6.40
2016,06,20,02,09,6.40
2016,06,20,02,10,6.40
2016,06,20,02,11,6.40
2016,06,20,02,12,6.30
2016,06,20,02,13,6.30
2016,06,20,02,14,6.30
2016,06,20,02,15,6.30
2016,06,20,02,16,6.30
2016,06,20,02,17,6.30
2016,06,20,02,18,6.30
2016,06,20,02,19,6.30
2016,06,20,02,20,6.30
2016,06,20,02,21,6.00
2016,06,20,02,22,6.00
2016,06,20,02,23,6.00
2016,06,20,02,24,6.00
2016,06,20,02,25,6.00
2016,06,20,02,26,6.00
2016,06,20,02,27,6.00
2016,06,20,02,28,6.00
2016,06,20,02,29,6.00
2016,06,20,02,30,6.00
2016,06,20,02,31,6.00
2016,06,20,02,32,6.00
2016,06,20,02,33,6.00
2016,06,20,02,34,6.00
2016,06,20,02,35,6.00
2016,06,20,02,36,6.00
2016,06,20,02,37,6.00
2016,06,20,02,38,6.00
2016,06,20,02,39,6.00
2016,06,20,02,40,6.00
2016,06,20,02,41,6.00
2016,06,20,02,42,6.00
2016,06,20,02,43,6.00
2016,06,20,02,44,6.00
2016,06,20,02,45,6.00
2016,06,20,02,46,6.00
2016,06,20,02,47,6.00
2016,06,20,02,48,6.00
2016,06,20,02,49,6.00
2016,06,20,02,50,6.00
2016,06,20,02,51,6.00
2016,06,20,02,52,5.60
2016,06,20,02,53,5.60
2016,06,20,02,54,5.60
2016,06,20,02,55,5.60
2016,06,20,02,56,5.60
2016,06,20,02,57,5.60
2016,06,20,02,58,5.60
2016,06,20,02,59,5.60
2016,06,20,03,00,5.60
2016,06,20,03,01,5.40
2016,06,20,03,02,5.40
2016,06,20,03,03,5.40
2016,06,20,03,04,5.40
2016,06,20,03,05,5.40
2016,06,20,03,06,5.40
2016,06,20,03,07,5.40
2016,06,20,03,08,5.40
2016,06,20,03,09,5.40
2016,06,20,03,10,5.40
2016,06,20,03,11,5.30
2016,06,20,03,12,5.30
2016,06,20,03,13,5.30
2016,06,20,03,14,5.30
2016,06,20,03,15,5.30
2016,06,20,03,16,5.30
2016,06,20,03,17,5.30
2016,06,20,03,18,5.30
2016,06,20,03,19,5.30
2016,06,20,03,20,5.30
2016,06,20,03,21,5.10
2016,06,20,03,22,5.10
2016,06,20,03,23,5.10
2016,06,20,03,24,5.10
2016,06,20,03,25,5.10
2016,06,20,03,26,5.10
2016,06,20,03,27,5.10
2016,06,20,03,28,5.10
2016,06,20,03,29,5.10
2016,06,20,03,30,5.10
2016,06,20,03,31,5.10
2016,06,20,03,32,5.10
2016,06,20,03,33,5.10
2016,06,20,03,34,5.10
2016,06,20,03,35,5.10
2016,06,20,03,36,5.10
2016,06,20,03,37,5.10
2016,06,20,03,38,5.10
2016,06,20,03,39,5.10
2016,06,20,03,40,5.10
2016,06,20,03,41,5.30
2016,06,20,03,42,5.30
2016,06,20,03,43,5.30
2016,06,20,03,44,5.30
2016,06,20,03,45,5.30
2016,06,20,03,46,5.30
2016,06,20,03,47,5.30
2016,06,20,03,48,5.30
2016,06,20,03,49,5.30
2016,06,20,03,50,5.30
2016,06,20,03,51,5.20
2016,06,20,03,52,5.20
2016,06,20,03,53,5.20
2016,06,20,03,54,5.20
2016,06,20,03,55,5.20
2016,06,20,03,56,5.20
2016,06,20,03,57,5.20
2016,06,20,03,58,5.20
2016,06,20,03,59,5.20
2016,06,20,04,00,5.20
2016,06,20,04,01,5.20
2016,06,20,04,02,5.30
2016,06,20,04,03,5.30
2016,06,20,04,04,5.30
2016,06,20,04,05,5.30
2016,06,20,04,06,5.30
2016,06,20,04,07,5.30
2016,06,20,04,08,5.30
2016,06,20,04,09,5.30
2016,06,20,04,10,5.30
2016,06,20,04,11,5.30
2016,06,20,04,12,5.50
2016,06,20,04,13,5.50
2016,06,20,04,14,5.50
2016,06,20,04,15,5.50
2016,06,20,04,16,5.50
2016,06,20,04,17,5.50
2016,06,20,04,18,5.50
2016,06,20,04,19,5.50
2016,06,20,04,20,5.50
2016,06,20,04,21,5.50
2016,06,20,04,22,5.40
2016,06,20,04,23,5.40
2016,06,20,04,24,5.40
2016,06,20,04,25,5.40
2016,06,20,04,26,5.40
2016,06,20,04,27,5.40
2016,06,20,04,28,5.40
2016,06,20,04,29,5.40
2016,06,20,04,30,5.40
2016,06,20,04,31,5.40
2016,06,20,04,32,5.40
2016,06,20,04,33,5.40
2016,06,20,04,34,5.40
2016,06,20,04,35,5.40
2016,06,20,04,36,5.40
2016,06,20,04,37,5.40
2016,06,20,04,38,5.40
2016,06,20,04,39,5.40
2016,06,20,04,40,5.40
2016,06,20,04,41,5.40
2016,06,20,04,42,5.30
2016,06,20,04,43,5.30
2016,06,20,04,44,5.30
2016,06,20,04,45,5.30
2016,06,20,04,46,5.30
2016,06,20,04,47,5.30
2016,06,20,04,48,5.30
2016,06,20,04,49,5.30
2016,06,20,04,50,5.30
2016,06,20,04,51,5.30
2016,06,20,04,52,5.30
2016,06,20,04,53,5.20
2016,06,20,04,54,5.20
2016,06,20,04,55,5.20
2016,06,20,04,56,5.20
2016,06,20,04,57,5.20
2016,06,20,04,58,5.20
2016,06,20,04,59,5.20
2016,06,20,05,00,5.20
2016,06,20,05,01,5.20
2016,06,20,05,02,5.00
2016,06,20,05,03,5.00
2016,06,20,05,04,5.00
2016,06,20,05,05,5.00
2016,06,20,05,06,5.00
2016,06,20,05,07,5.00
2016,06,20,05,08,5.00
2016,06,20,05,09,5.00
2016,06,20,05,10,5.00
2016,06,20,05,11,4.90
2016,06,20,05,12,4.90
2016,06,20,05,13,4.90
2016,06,20,05,14,4.90
2016,06,20,05,15,4.90
2016,06,20,05,16,4.90
2016,06,20,05,17,4.90
2016,06,20,05,18,4.90
2016,06,20,05,19,4.90
2016,06,20,05,20,4.90
2016,06,20,05,21,4.80
2016,06,20,05,22,4.80
2016,06,20,05,23,4.80
2016,06,20,05,24,4.80
2016,06,20,05,25,4.80
2016,06,20,05,26,4.80
2016,06,20,05,27,4.80
2016,06,20,05,28,4.80
2016,06,20,05,29,4.80
2016,06,20,05,30,4.80
2016,06,20,05,31,4.70
2016,06,20,05,32,4.70
2016,06,20,05,33,4.70
2016,06,20,05,34,4.70
2016,06,20,05,35,4.70
2016,06,20,05,36,4.70
2016,06,20,05,37,4.70
2016,06,20,05,38,4.70
2016,06,20,05,39,4.70
2016,06,20,05,40,4.70
2016,06,20,05,41,4.70
2016,06,20,05,42,4.80
2016,06,20,05,43,4.80
2016,06,20,05,44,4.80
2016,06,20,05,45,4.80
2016,06,20,05,46,4.80
2016,06,20,05,47,4.80
2016,06,20,05,48,4.80
2016,06,20,05,49,4.80
2016,06,20,05,50,4.80
2016,06,20,05,51,4.80
2016,06,20,05,52,4.80
2016,06,20,05,53,4.60
2016,06,20,05,54,4.60
2016,06,20,05,55,4.60
2016,06,20,05,56,4.60
2016,06,20,05,57,4.60
2016,06,20,05,58,4.60
2016,06,20,05,59,4.60
2016,06,20,06,00,4.60
2016,06,20,06,01,4.60
2016,06,20,06,02,4.70
2016,06,20,06,03,4.70
2016,06,20,06,04,4.70
2016,06,20,06,05,4.70
2016,06,20,06,06,4.70
2016,06,20,06,07,4.70
2016,06,20,06,08,4.70
2016,06,20,06,09,4.70
2016,06,20,06,10,4.70
2016,06,20,06,11,4.70
2016,06,20,06,12,4.70
2016,06,20,06,13,4.80
2016,06,20,06,14,4.80
2016,06,20,06,15,4.80
2016,06,20,06,16,4.80
2016,06,20,06,17,4.80
2016,06,20,06,18,4.80
2016,06,20,06,19,4.80
2016,06,20,06,20,4.80
2016,06,20,06,21,5.00
2016,06,20,06,22,5.00
2016,06,20,06,23,5.00
2016,06,20,06,24,5.00
2016,06,20,06,25,5.00
2016,06,20,06,26,5.00
2016,06,20,06,27,5.00
2016,06,20,06,28,5.00
2016,06,20,06,29,5.00
2016,06,20,06,30,5.00
2016,06,20,06,31,5.20
2016,06,20,06,32,5.20
2016,06,20,06,33,5.20
2016,06,20,06,34,5.20
2016,06,20,06,35,5.20
2016,06,20,06,36,5.20
2016,06,20,06,37,5.20
2016,06,20,06,38,5.20
2016,06,20,06,39,5.20
2016,06,20,06,40,5.20
2016,06,20,06,41,5.60
2016,06,20,06,42,5.60
2016,06,20,06,43,5.60
2016,06,20,06,44,5.60
2016,06,20,06,45,5.60
2016,06,20,06,46,5.60
2016,06,20,06,47,5.60
2016,06,20,06,48,5.60
2016,06,20,06,49,5.60
2016,06,20,06,50,5.60
2016,06,20,06,51,5.70
2016,06,20,06,52,5.70
2016,06,20,06,53,5.70
2016,06,20,06,54,5.70
2016,06,20,06,55,5.70
2016,06,20,06,56,5.70
2016,06,20,06,57,5.70
2016,06,20,06,58,5.70
2016,06,20,06,59,5.70
2016,06,20,07,00,5.70
2016,06,20,07,01,5.90
2016,06,20,07,02,5.90
2016,06,20,07,03,5.90
2016,06,20,07,04,5.90
2016,06,20,07,05,5.90
2016,06,20,07,06,5.90
2016,06,20,07,07,5.90
2016,06,20,07,08,5.90
2016,06,20,07,09,5.90
2016,06,20,07,10,5.90
2016,06,20,07,11,6.10
2016,06,20,07,12,6.10
2016,06,20,07,13,6.10
2016,06,20,07,14,6.10
2016,06,20,07,15,6.10
2016,06,20,07,16,6.10
2016,06,20,07,17,6.10
2016,06,20,07,18,6.10
2016,06,20,07,19,6.10
2016,06,20,07,20,6.10
2016,06,20,07,21,6.60
2016,06,20,07,22,6.60
2016,06,20,07,23,6.60
2016,06,20,07,24,6.60
2016,06,20,07,25,6.60
2016,06,20,07,26,6.60
2016,06,20,07,27,6.60
2016,06,20,07,28,6.60
2016,06,20,07,29,6.60
2016,06,20,07,30,6.60
2016,06,20,07,31,6.60
2016,06,20,07,32,6.60
2016,06,20,07,33,7.30
2016,06,20,07,34,7.30
2016,06,20,07,35,7.30
2016,06,20,07,36,7.30
2016,06,20,07,37,7.30
2016,06,20,07,38,7.30
2016,06,20,07,39,7.30
2016,06,20,07,40,7.30
2016,06,20,07,41,7.70
2016,06,20,07,42,7.70
2016,06,20,07,43,7.70
2016,06,20,07,44,7.70
2016,06,20,07,45,7.70
2016,06,20,07,46,7.70
2016,06,20,07,47,7.70
2016,06,20,07,48,7.70
2016,06,20,07,49,7.70
2016,06,20,07,50,7.70
2016,06,20,07,51,8.20
2016,06,20,07,52,8.20
2016,06,20,07,53,8.20
2016,06,20,07,54,8.20
2016,06,20,07,55,8.20
2016,06,20,07,56,8.20
2016,06,20,07,57,8.20
2016,06,20,07,58,8.20
2016,06,20,07,59,8.20
2016,06,20,08,00,8.20
2016,06,20,08,01,8.20
2016,06,20,08,02,8.70
2016,06,20,08,03,8.70
2016,06,20,08,04,8.70
2016,06,20,08,05,8.70
2016,06,20,08,06,8.70
2016,06,20,08,07,8.70
2016,06,20,08,08,8.70
2016,06,20,08,09,8.70
2016,06,20,08,10,8.70
2016,06,20,08,11,9.10
2016,06,20,08,12,9.10
2016,06,20,08,13,9.10
2016,06,20,08,14,9.10
2016,06,20,08,15,9.10
2016,06,20,08,16,9.10
2016,06,20,08,17,9.10
2016,06,20,08,18,9.10
2016,06,20,08,19,9.10
2016,06,20,08,20,9.10
2016,06,20,08,21,9.60
2016,06,20,08,22,9.60
2016,06,20,08,23,9.60
2016,06,20,08,24,9.60
2016,06,20,08,25,9.60
2016,06,20,08,26,9.60
2016,06,20,08,27,9.60
2016,06,20,08,28,9.60
2016,06,20,08,29,9.60
2016,06,20,08,30,9.60
2016,06,20,08,31,10.10
2016,06,20,08,32,10.10
2016,06,20,08,33,10.10
2016,06,20,08,34,10.10
2016,06,20,08,35,10.10
2016,06,20,08,36,10.10
2016,06,20,08,37,10.10
2016,06,20,08,38,10.10
2016,06,20,08,39,10.10
2016,06,20,08,40,10.10
2016,06,20,08,41,10.40
2016,06,20,08,42,10.40
2016,06,20,08,43,10.40
2016,06,20,08,44,10.40
2016,06,20,08,45,10.40
2016,06,20,08,46,10.40
2016,06,20,08,47,10.40
2016,06,20,08,48,10.40
2016,06,20,08,49,10.40
2016,06,20,08,50,10.40
2016,06,20,08,51,10.40
2016,06,20,08,52,10.60
2016,06,20,08,53,10.60
2016,06,20,08,54,10.60
2016,06,20,08,55,10.60
2016,06,20,08,56,10.60
2016,06,20,08,57,10.60
2016,06,20,08,58,10.60
2016,06,20,08,59,10.60
2016,06,20,09,00,10.60
2016,06,20,09,01,10.60
2016,06,20,09,02,10.80
2016,06,20,09,03,10.80
2016,06,20,09,04,10.80
2016,06,20,09,05,10.80
2016,06,20,09,06,10.80
2016,06,20,09,07,10.80
2016,06,20,09,08,10.80
2016,06,20,09,09,10.80
2016,06,20,09,10,10.80
2016,06,20,09,11,10.80
2016,06,20,09,12,10.90
2016,06,20,09,13,10.90
2016,06,20,09,14,10.90
2016,06,20,09,15,10.90
2016,06,20,09,16,10.90
2016,06,20,09,17,10.90
2016,06,20,09,18,10.90
2016,06,20,09,19,10.90
2016,06,20,09,20,10.90
2016,06,20,09,21,11.40
2016,06,20,09,22,11.40
2016,06,20,09,23,11.40
2016,06,20,09,24,11.40
2016,06,20,09,25,11.40
2016,06,20,09,26,11.40
2016,06,20,09,27,11.40
2016,06,20,09,28,11.40
2016,06,20,09,29,11.40
2016,06,20,09,30,11.40
2016,06,20,09,31,11.40
2016,06,20,09,32,11.50
2016,06,20,09,33,11.50
2016,06,20,09,34,11.50
2016,06,20,09,35,11.50
2016,06,20,09,36,11.50
2016,06,20,09,37,11.50
2016,06,20,09,38,11.50
2016,06,20,09,39,11.50
2016,06,20,09,40,11.50
2016,06,20,09,41,11.40
2016,06,20,09,42,11.40
2016,06,20,09,43,11.40
2016,06,20,09,44,11.40
2016,06,20,09,45,11.40
2016,06,20,09,46,11.40
2016,06,20,09,47,11.40
2016,06,20,09,48,11.40
2016,06,20,09,49,11.40
2016,06,20,09,50,11.40
2016,06,20,09,51,11.40
2016,06,20,09,52,11.70
2016,06,20,09,53,11.70
2016,06,20,09,54,11.70
2016,06,20,09,55,11.70
2016,06,20,09,56,11.70
2016,06,20,09,57,11.70
2016,06,20,09,58,11.70
2016,06,20,09,59,11.70
2016,06,20,10,00,11.70
2016,06,20,10,01,12.20
2016,06,20,10,02,12.20
2016,06,20,10,03,12.20
2016,06,20,10,04,12.20
2016,06,20,10,05,12.20
2016,06,20,10,06,12.20
2016,06,20,10,07,12.20
2016,06,20,10,08,12.20
2016,06,20,10,09,12.20
2016,06,20,10,10,12.20
2016,06,20,10,11,12.50
2016,06,20,10,12,12.50
2016,06,20,10,13,12.50
2016,06,20,10,14,12.50
2016,06,20,10,15,12.50
2016,06,20,10,16,12.50
2016,06,20,10,17,12.50
2016,06,20,10,18,12.50
2016,06,20,10,19,12.50
2016,06,20,10,20,12.50
2016,06,20,10,21,12.50
2016,06,20,10,22,13.00
2016,06,20,10,23,13.00
2016,06,20,10,24,13.00
2016,06,20,10,25,13.00
2016,06,20,10,26,13.00
2016,06,20,10,27,13.00
2016,06,20,10,28,13.00
2016,06,20,10,29,13.00
2016,06,20,10,30,13.00
2016,06,20,10,31,13.60
2016,06,20,10,32,13.60
2016,06,20,10,33,13.60
2016,06,20,10,34,13.60
2016,06,20,10,35,13.60
2016,06,20,10,36,13.60
2016,06,20,10,37,13.60
2016,06,20,10,38,13.60
2016,06,20,10,39,13.60
2016,06,20,10,40,13.60
2016,06,20,10,41,13.60
2016,06,20,10,42,13.30
2016,06,20,10,43,13.30
2016,06,20,10,44,13.30
2016,06,20,10,45,13.30
2016,06,20,10,46,13.30
2016,06,20,10,47,13.30
2016,06,20,10,48,13.30
2016,06,20,10,49,13.30
2016,06,20,10,50,13.30
2016,06,20,10,51,13.30
2016,06,20,10,52,14.10
2016,06,20,10,53,14.10
2016,06,20,10,54,14.10
2016,06,20,10,55,14.10
2016,06,20,10,56,14.10
2016,06,20,10,57,14.10
2016,06,20,10,58,14.10
2016,06,20,10,59,14.10
2016,06,20,11,00,14.10
2016,06,20,11,01,14.10
2016,06,20,11,02,14.40
2016,06,20,11,03,14.40
2016,06,20,11,04,14.40
2016,06,20,11,05,14.40
2016,06,20,11,06,14.40
2016,06,20,11,07,14.40
2016,06,20,11,08,14.40
2016,06,20,11,09,14.40
2016,06,20,11,10,14.40
2016,06,20,11,11,14.40
2016,06,20,11,12,14.60
2016,06,20,11,13,14.60
2016,06,20,11,14,14.60
2016,06,20,11,15,14.60
2016,06,20,11,16,14.60
2016,06,20,11,17,14.60
2016,06,20,11,18,14.60
2016,06,20,11,19,14.60
2016,06,20,11,20,14.60
2016,06,20,11,21,14.60
2016,06,20,11,22,14.60
2016,06,20,11,23,14.60
2016,06,20,11,24,14.60
2016,06,20,11,25,14.60
2016,06,20,11,26,14.60
2016,06,20,11,27,14.60
2016,06,20,11,28,14.60
2016,06,20,11,29,14.60
2016,06,20,11,30,14.60
2016,06,20,11,31,14.60
2016,06,20,11,32,14.60
2016,06,20,11,33,14.60
2016,06,20,11,34,14.60
2016,06,20,11,35,14.60
2016,06,20,11,36,14.60
2016,06,20,11,37,14.60
2016,06,20,11,38,14.60
2016,06,20,11,39,14.60
2016,06,20,11,40,14.60
2016,06,20,11,41,14.70
2016,06,20,11,42,14.70
2016,06,20,11,43,14.70
2016,06,20,11,44,14.70
2016,06,20,11,45,14.70
2016,06,20,11,46,14.70
2016,06,20,11,47,14.70
2016,06,20,11,48,14.70
2016,06,20,11,49,14.70
2016,06,20,11,50,14.70
2016,06,20,11,51,14.70
2016,06,20,11,52,14.70
2016,06,20,11,53,14.20
2016,06,20,11,54,14.20
2016,06,20,11,55,14.20
2016,06,20,11,56,14.20
2016,06,20,11,57,14.20
2016,06,20,11,58,14.20
2016,06,20,11,59,14.20
2016,06,20,12,00,14.20
2016,06,20,12,01,14.20
2016,06,20,12,02,14.50
2016,06,20,12,03,14.50
2016,06,20,12,04,14.50
2016,06,20,12,05,14.50
2016,06,20,12,06,14.50
2016,06,20,12,07,14.50
2016,06,20,12,08,14.50
2016,06,20,12,09,14.50
2016,06,20,12,10,14.50
2016,06,20,12,11,14.20
2016,06,20,12,12,14.20
2016,06,20,12,13,14.20
2016,06,20,12,14,14.20
2016,06,20,12,15,14.20
2016,06,20,12,16,14.20
2016,06,20,12,17,14.20
2016,06,20,12,18,14.20
2016,06,20,12,19,14.20
2016,06,20,12,20,14.20
2016,06,20,12,21,14.50
2016,06,20,12,22,14.50
2016,06,20,12,23,14.50
2016,06,20,12,24,14.50
2016,06,20,12,25,14.50
2016,06,20,12,26,14.50
2016,06,20,12,27,14.50
2016,06,20,12,28,14.50
2016,06,20,12,29,14.50
2016,06,20,12,30,14.50
2016,06,20,12,31,14.50
2016,06,20,12,32,14.50
2016,06,20,12,33,15.20
2016,06,20,12,34,15.20
2016,06,20,12,35,15.20
2016,06,20,12,36,15.20
2016,06,20,12,37,15.20
2016,06,20,12,38,15.20
2016,06,20,12,39,15.20
2016,06,20,12,40,15.20
2016,06,20,12,41,14.90
2016,06,20,12,42,14.90
2016,06,20,12,43,14.90
2016,06,20,12,44,14.90
2016,06,20,12,45,14.90
2016,06,20,12,46,14.90
2016,06,20,12,47,14.90
2016,06,20,12,48,14.90
2016,06,20,12,49,14.90
2016,06,20,12,50,14.90
2016,06,20,12,51,15.10
2016,06,20,12,52,15.10
2016,06,20,12,53,15.10
2016,06,20,12,54,15.10
2016,06,20,12,55,15.10
2016,06,20,12,56,15.10
2016,06,20,12,57,15.10
2016,06,20,12,58,15.10
2016,06,20,12,59,15.10
2016,06,20,13,00,15.10
2016,06,20,13,01,15.10
2016,06,20,13,02,15.20
2016,06,20,13,03,15.20
2016,06,20,13,04,15.20
2016,06,20,13,05,15.20
2016,06,20,13,06,15.20
2016,06,20,13,07,15.20
2016,06,20,13,08,15.20
2016,06,20,13,09,15.20
2016,06,20,13,10,15.20
2016,06,20,13,11,15.20
2016,06,20,13,12,15.20
2016,06,20,13,13,15.20
2016,06,20,13,14,15.20
2016,06,20,13,15,15.20
2016,06,20,13,16,15.20
2016,06,20,13,17,15.20
2016,06,20,13,18,15.20
2016,06,20,13,19,15.20
2016,06,20,13,20,15.20
2016,06,20,13,21,15.20
2016,06,20,13,22,15.20
2016,06,20,13,23,15.60
2016,06,20,13,24,15.60
2016,06,20,13,25,15.60
2016,06,20,13,26,15.60
2016,06,20,13,27,15.60
2016,06,20,13,28,15.60
2016,06,20,13,29,15.60
2016,06,20,13,30,15.60
2016,06,20,13,31,15.60
2016,06,20,13,32,15.80
2016,06,20,13,33,15.80
2016,06,20,13,34,15.80
2016,06,20,13,35,15.80
2016,06,20,13,36,15.80
2016,06,20,13,37,15.80
2016,06,20,13,38,15.80
2016,06,20,13,39,15.80
2016,06,20,13,40,15.80
2016,06,20,13,41,15.80
2016,06,20,13,42,15.90
2016,06,20,13,43,15.90
2016,06,20,13,44,15.90
2016,06,20,13,45,15.90
2016,06,20,13,46,15.90
2016,06,20,13,47,15.90
2016,06,20,13,48,15.90
2016,06,20,13,49,15.90
2016,06,20,13,50,15.90
2016,06,20,13,51,15.80
2016,06,20,13,52,15.80
2016,06,20,13,53,15.80
2016,06,20,13,54,15.80
2016,06,20,13,55,15.80
2016,06,20,13,56,15.80
2016,06,20,13,57,15.80
2016,06,20,13,58,15.80
2016,06,20,13,59,15.80
2016,06,20,14,00,15.80
2016,06,20,14,01,15.80
2016,06,20,14,02,16.40
2016,06,20,14,03,16.40
2016,06,20,14,04,16.40
2016,06,20,14,05,16.40
2016,06,20,14,06,16.40
2016,06,20,14,07,16.40
2016,06,20,14,08,16.40
2016,06,20,14,09,16.40
2016,06,20,14,10,16.40
2016,06,20,14,11,16.40
2016,06,20,14,12,15.70
2016,06,20,14,13,15.70
2016,06,20,14,14,15.70
2016,06,20,14,15,15.70
2016,06,20,14,16,15.70
2016,06,20,14,17,15.70
2016,06,20,14,18,15.70
2016,06,20,14,19,15.70
2016,06,20,14,20,15.70
2016,06,20,14,21,15.10
2016,06,20,14,22,15.10
2016,06,20,14,23,15.10
2016,06,20,14,24,15.10
2016,06,20,14,25,15.10
2016,06,20,14,26,15.10
2016,06,20,14,27,15.10
2016,06,20,14,28,15.10
2016,06,20,14,29,15.10
2016,06,20,14,30,15.10
2016,06,20,14,31,15.10
2016,06,20,14,32,15.10
2016,06,20,14,33,15.10
2016,06,20,14,34,15.10
2016,06,20,14,35,15.10
2016,06,20,14,36,15.10
2016,06,20,14,37,15.10
2016,06,20,14,38,15.10
2016,06,20,14,39,15.10
2016,06,20,14,40,15.10
2016,06,20,14,41,15.30
2016,06,20,14,42,15.30
2016,06,20,14,43,15.30
2016,06,20,14,44,15.30
2016,06,20,14,45,15.30
2016,06,20,14,46,15.30
2016,06,20,14,47,15.30
2016,06,20,14,48,15.30
2016,06,20,14,49,15.30
2016,06,20,14,50,15.30
2016,06,20,14,51,15.40
2016,06,20,14,52,15.40
2016,06,20,14,53,15.40
2016,06,20,14,54,15.40
2016,06,20,14,55,15.40
2016,06,20,14,56,15.40
2016,06,20,14,57,15.40
2016,06,20,14,58,15.40
2016,06,20,14,59,15.40
2016,06,20,15,00,15.40
2016,06,20,15,01,15.40
2016,06,20,15,02,15.10
2016,06,20,15,03,15.10
2016,06,20,15,04,15.10
2016,06,20,15,05,15.10
2016,06,20,15,06,15.10
2016,06,20,15,07,15.10
2016,06,20,15,08,15.10
2016,06,20,15,09,15.10
2016,06,20,15,10,15.10
2016,06,20,15,11,15.10
2016,06,20,15,12,14.90
2016,06,20,15,13,14.90
2016,06,20,15,14,14.90
2016,06,20,15,15,14.90
2016,06,20,15,16,14.90
2016,06,20,15,17,14.90
2016,06,20,15,18,14.90
2016,06,20,15,19,14.90
2016,06,20,15,20,14.90
2016,06,20,15,21,14.90
2016,06,20,15,22,15.20
2016,06,20,15,23,15.20
2016,06,20,15,24,15.20
2016,06,20,15,25,15.20
2016,06,20,15,26,15.20
2016,06,20,15,27,15.20
2016,06,20,15,28,15.20
2016,06,20,15,29,15.20
2016,06,20,15,30,15.20
2016,06,20,15,31,15.40
2016,06,20,15,32,15.40
2016,06,20,15,33,15.40
2016,06,20,15,34,15.40
2016,06,20,15,35,15.40
2016,06,20,15,36,15.40
2016,06,20,15,37,15.40
2016,06,20,15,38,15.40
2016,06,20,15,39,15.40
2016,06,20,15,40,15.40
2016,06,20,15,41,15.40
2016,06,20,15,42,15.20
2016,06,20,15,43,15.20
2016,06,20,15,44,15.20
2016,06,20,15,45,15.20
2016,06,20,15,46,15.20
2016,06,20,15,47,15.20
2016,06,20,15,48,15.20
2016,06,20,15,49,15.20
2016,06,20,15,50,15.20
2016,06,20,15,51,15.20
2016,06,20,15,52,15.20
2016,06,20,15,53,15.20
2016,06,20,15,54,15.20
2016,06,20,15,55,15.20
2016,06,20,15,56,15.20
2016,06,20,15,57,15.20
2016,06,20,15,58,15.20
2016,06,20,15,59,15.20
2016,06,20,16,00,15.20
2016,06,20,16,01,15.20
2016,06,20,16,02,14.70
2016,06,20,16,03,14.70
2016,06,20,16,04,14.70
2016,06,20,16,05,14.70
2016,06,20,16,06,14.70
2016,06,20,16,07,14.70
2016,06,20,16,08,14.70
2016,06,20,16,09,14.70
2016,06,20,16,10,14.70
2016,06,20,16,11,14.50
2016,06,20,16,12,14.50
2016,06,20,16,13,14.50
2016,06,20,16,14,14.50
2016,06,20,16,15,14.50
2016,06,20,16,16,14.50
2016,06,20,16,17,14.50
2016,06,20,16,18,14.50
2016,06,20,16,19,14.50
2016,06,20,16,20,14.50
2016,06,20,16,21,14.40
2016,06,20,16,22,14.40
2016,06,20,16,23,14.40
2016,06,20,16,24,14.40
2016,06,20,16,25,14.40
2016,06,20,16,26,14.40
2016,06,20,16,27,14.40
2016,06,20,16,28,14.40
2016,06,20,16,29,14.40
2016,06,20,16,30,14.40
2016,06,20,16,31,14.40
2016,06,20,16,32,14.40
2016,06,20,16,33,14.40
2016,06,20,16,34,14.40
2016,06,20,16,35,14.40
2016,06,20,16,36,14.40
2016,06,20,16,37,14.40
2016,06,20,16,38,14.40
2016,06,20,16,39,14.40
2016,06,20,16,40,14.40
2016,06,20,16,41,13.80
2016,06,20,16,42,13.80
2016,06,20,16,43,13.80
2016,06,20,16,44,13.80
2016,06,20,16,45,13.80
2016,06,20,16,46,13.80
2016,06,20,16,47,13.80
2016,06,20,16,48,13.80
2016,06,20,16,49,13.80
2016,06,20,16,50,13.80
2016,06,20,16,51,13.80
2016,06,20,16,52,12.90
2016,06,20,16,53,12.90
2016,06,20,16,54,12.90
2016,06,20,16,55,12.90
2016,06,20,16,56,12.90
2016,06,20,16,57,12.90
2016,06,20,16,58,12.90
2016,06,20,16,59,12.90
2016,06,20,17,00,12.90
2016,06,20,17,01,12.90
2016,06,20,17,02,12.70
2016,06,20,17,03,12.70
2016,06,20,17,04,12.70
2016,06,20,17,05,12.70
2016,06,20,17,06,12.70
2016,06,20,17,07,12.70
2016,06,20,17,08,12.70
2016,06,20,17,09,12.70
2016,06,20,17,10,12.70
2016,06,20,17,11,12.70
2016,06,20,17,12,12.30
2016,06,20,17,13,12.30
2016,06,20,17,14,12.30
2016,06,20,17,15,12.30
2016,06,20,17,16,12.30
2016,06,20,17,17,12.30
2016,06,20,17,18,12.30
2016,06,20,17,19,12.30
2016,06,20,17,20,12.30
2016,06,20,17,21,12.30
2016,06,20,17,22,12.30
2016,06,20,17,23,12.30
2016,06,20,17,24,12.30
2016,06,20,17,25,12.30
2016,06,20,17,26,12.30
2016,06,20,17,27,12.30
2016,06,20,17,28,12.30
2016,06,20,17,29,12.30
2016,06,20,17,30,12.30
2016,06,20,17,31,12.10
2016,06,20,17,32,12.10
2016,06,20,17,33,12.10
2016,06,20,17,34,12.10
2016,06,20,17,35,12.10
2016,06,20,17,36,12.10
2016,06,20,17,37,12.10
2016,06,20,17,38,12.10
2016,06,20,17,39,12.10
2016,06,20,17,40,12.10
2016,06,20,17,41,12.10